Change the Weather History Date:

Thursday, January 30, 2014

  Actual Average (KSBD) Record (KSBD)
Temperature  
Mean Temperature 57 °F -  
Max Temperature 68 °F 64 °F 71 °F (2012)
Min Temperature 46 °F 39 °F 33 °F (2012)
Degree Days  
Heating Degree Days 8    
Growing Degree Days 7 (Base 50)    
Moisture  
Dew Point 36 °F    
Average Humidity 52    
Maximum Humidity 87    
Minimum Humidity 23    
Precipitation  
Precipitation 0.00 in - - ()
Sea Level Pressure  
Sea Level Pressure 29.85 in    
Wind  
Wind Speed 8 mph (SW)    
Max Wind Speed 20 mph    
Max Gust Speed 29 mph    
Visibility 9 miles    
Events      
Averages and records for this station are not official NWS values.
T = Trace of Precipitation, MM = Missing Value Source: NWS Daily Summary

Daily Weather History Graph

Daily Weather History Graph

Search for Another Location

Airport or City:

Trip Planner

Search our weather history database for the weather conditions in past years. The results will help you decide how hot, cold, wet, or windy it might be!

Date:

Astronomy

Jan. 30, 2014 Rise Set
Actual Time 6:48 AM PST 5:17 PM PST
Civil Twilight 6:22 AM PST 5:43 PM PST
Nautical Twilight 5:52 AM PST 6:13 PM PST
Astronomical Twilight 5:22 AM PST 6:43 PM PST
Moon 6:20 AM PST (1/30) 5:31 PM PST (1/30)
Length of Visible Light 11h 21m
Length of Day
10h 28m
Waning Crescent, 0% of the Moon is Illuminated
Jan 30
Waning Crescent
Jan 30
New
Feb 6
First Quarter
Feb 14
Full
Feb 22
Last Quarter

Hourly Weather History & Observations

Time (PST) Temp. Windchill Dew Point Humidity Pressure Visibility Wind Dir Wind Speed Gust Speed Precip Events Conditions
12:15 AM 59.0 °F - 33.8 °F 39% 29.93 in 10.0 mi SW 8.1 mph - N/A   Unknown
12:35 AM 57.2 °F - 33.8 °F 41% 29.92 in 10.0 mi SSW 6.9 mph - N/A   Unknown
12:55 AM 55.4 °F - 33.8 °F 44% 29.91 in 10.0 mi Calm Calm - N/A   Unknown
1:15 AM 53.6 °F - 33.8 °F 47% 29.91 in 10.0 mi SW 3.5 mph - N/A   Unknown
1:35 AM 55.4 °F - 33.8 °F 44% 29.90 in 10.0 mi SW 4.6 mph - N/A   Unknown
1:55 AM 53.6 °F - 33.8 °F 47% 29.90 in 10.0 mi SW 4.6 mph - N/A   Unknown
2:15 AM 51.8 °F - 33.8 °F 50% 29.90 in 10.0 mi Calm Calm - N/A   Unknown
2:35 AM 53.6 °F - 33.8 °F 47% 29.89 in 10.0 mi SSW 5.8 mph - N/A   Unknown
2:55 AM 51.8 °F - 33.8 °F 50% 29.88 in 10.0 mi South 3.5 mph - N/A   Unknown
3:15 AM 53.6 °F - 33.8 °F 47% 29.88 in 10.0 mi SSW 4.6 mph - N/A   Unknown
3:35 AM 51.8 °F - 33.8 °F 50% 29.87 in 10.0 mi SW 4.6 mph - N/A   Unknown
3:55 AM 53.6 °F - 35.6 °F 51% 29.86 in 10.0 mi SW 4.6 mph - N/A   Unknown
4:15 AM 51.8 °F - 35.6 °F 54% 29.85 in 10.0 mi South 5.8 mph - N/A   Unknown
4:35 AM 51.8 °F - 33.8 °F 50% 29.85 in 10.0 mi South 5.8 mph - N/A   Unknown
4:55 AM 53.6 °F - 33.8 °F 47% 29.85 in 10.0 mi SSW 5.8 mph - N/A   Unknown
5:15 AM 53.6 °F - 35.6 °F 51% 29.85 in 10.0 mi SSW 4.6 mph - N/A   Unknown
5:35 AM 55.4 °F - 35.6 °F 47% 29.85 in 10.0 mi SSW 12.7 mph - N/A   Unknown
5:55 AM 57.2 °F - 35.6 °F 44% 29.86 in 10.0 mi SSW 11.5 mph - N/A   Unknown
6:15 AM 57.2 °F - 33.8 °F 41% 29.86 in 10.0 mi SSW 11.5 mph - N/A   Unknown
6:35 AM 55.4 °F - 33.8 °F 44% 29.84 in 10.0 mi SSW 10.4 mph 18.4 mph N/A   Unknown
6:55 AM 55.4 °F - 30.2 °F 38% 29.84 in 10.0 mi SSW 10.4 mph - N/A   Unknown
7:15 AM 57.2 °F - 26.6 °F 31% 29.85 in 10.0 mi South 9.2 mph - N/A   Unknown
7:35 AM 57.2 °F - 26.6 °F 31% 29.85 in 7.0 mi South 9.2 mph - N/A   Unknown
7:55 AM 59.0 °F - 28.4 °F 31% 29.85 in 7.0 mi SSW 13.8 mph 18.4 mph N/A   Unknown
8:15 AM 59.0 °F - 28.4 °F 31% 29.85 in 7.0 mi SSW 16.1 mph - N/A   Unknown
8:35 AM 60.8 °F - 28.4 °F 29% 29.85 in 7.0 mi South 18.4 mph - N/A   Unknown
8:55 AM 60.8 °F - 28.4 °F 29% 29.86 in 10.0 mi South 15.0 mph 18.4 mph N/A   Unknown
9:15 AM 62.6 °F - 30.2 °F 30% 29.87 in 10.0 mi SSW 10.4 mph - N/A   Unknown
9:35 AM 64.4 °F - 30.2 °F 28% 29.88 in 10.0 mi West 6.9 mph - N/A   Unknown
9:55 AM 62.6 °F - 32.0 °F 32% 29.88 in 10.0 mi WNW 5.8 mph - N/A   Unknown
10:15 AM 62.6 °F - 32.0 °F 32% 29.88 in 10.0 mi Calm Calm - N/A   Unknown
10:35 AM 64.4 °F - 30.2 °F 28% 29.87 in 10.0 mi Calm Calm - N/A   Unknown
10:55 AM 66.2 °F - 30.2 °F 26% 29.86 in 10.0 mi Calm Calm - N/A   Unknown
11:15 AM 68.0 °F - 30.2 °F 24% 29.86 in 10.0 mi WSW 5.8 mph - N/A   Unknown
11:35 AM 66.2 °F - 30.2 °F 26% 29.86 in 10.0 mi WSW 5.8 mph 9.2 mph N/A   Unknown
11:55 AM 66.2 °F - 26.6 °F 23% 29.84 in 5.0 mi West 16.1 mph 23.0 mph N/A   Haze
12:15 PM 64.4 °F - 28.4 °F 26% 29.84 in 5.0 mi West 19.6 mph 23.0 mph N/A   Haze
12:35 PM 66.2 °F - 32.0 °F 28% 29.82 in 10.0 mi West 15.0 mph 20.7 mph N/A   Unknown
12:55 PM 62.6 °F - 33.8 °F 34% 29.83 in 10.0 mi West 12.7 mph 18.4 mph N/A   Unknown
1:15 PM 62.6 °F - 35.6 °F 37% 29.84 in 10.0 mi West 12.7 mph 20.7 mph N/A   Unknown
1:35 PM 60.8 °F - 35.6 °F 39% 29.83 in 7.0 mi West 11.5 mph 18.4 mph N/A   Unknown
1:55 PM 60.8 °F - 37.4 °F 42% 29.81 in 10.0 mi West 15.0 mph 20.7 mph N/A   Unknown
2:15 PM 60.8 °F - 37.4 °F 42% 29.82 in 10.0 mi West 17.3 mph 21.9 mph N/A   Unknown
2:35 PM 60.8 °F - 39.2 °F 45% 29.82 in 10.0 mi WNW 16.1 mph 20.7 mph N/A   Unknown
2:55 PM 59.0 °F - 41.0 °F 51% 29.82 in 10.0 mi West 18.4 mph 24.2 mph N/A   Unknown
3:15 PM 59.0 °F - 41.0 °F 51% 29.82 in 10.0 mi West 18.4 mph 26.5 mph N/A   Unknown
3:35 PM 57.2 °F - 42.8 °F 59% 29.81 in 10.0 mi West 18.4 mph 26.5 mph N/A   Unknown
3:55 PM 57.2 °F - 42.8 °F 59% 29.81 in 10.0 mi West 16.1 mph 28.8 mph N/A   Unknown
4:15 PM 57.2 °F - 42.8 °F 59% 29.81 in 10.0 mi West 16.1 mph 28.8 mph N/A   Unknown
4:35 PM 57.2 °F - 42.8 °F 59% 29.83 in 10.0 mi West 16.1 mph 21.9 mph N/A   Unknown
4:55 PM 55.4 °F - 42.8 °F 63% 29.83 in 10.0 mi WSW 15.0 mph 19.6 mph N/A   Unknown
5:15 PM 53.6 °F - 42.8 °F 67% 29.83 in 10.0 mi SW 18.4 mph 26.5 mph N/A   Unknown
5:35 PM 53.6 °F - 42.8 °F 67% 29.83 in 10.0 mi SW 12.7 mph 18.4 mph N/A   Unknown
5:55 PM 53.6 °F - 42.8 °F 67% 29.84 in 10.0 mi WSW 6.9 mph - N/A   Unknown
6:15 PM 51.8 °F - 42.8 °F 71% 29.84 in 10.0 mi SSW 6.9 mph - N/A   Unknown
6:35 PM 51.8 °F - 42.8 °F 71% 29.84 in 10.0 mi SW 4.6 mph - N/A   Unknown
6:55 PM 51.8 °F - 42.8 °F 71% 29.84 in 10.0 mi SW 3.5 mph - N/A   Unknown
7:15 PM 51.8 °F - 42.8 °F 71% 29.84 in 10.0 mi Calm Calm - N/A   Unknown
7:35 PM 50.0 °F - 42.8 °F 76% 29.84 in 10.0 mi West 4.6 mph - N/A   Unknown
7:55 PM 50.0 °F - 42.8 °F 76% 29.85 in 10.0 mi WSW 6.9 mph - N/A   Unknown
8:15 PM 48.2 °F - 42.8 °F 82% 29.85 in 7.0 mi SW 5.8 mph - N/A   Unknown
8:35 PM 48.2 °F - 42.8 °F 82% 29.84 in 7.0 mi Calm Calm - N/A   Unknown
8:55 PM 48.2 °F - 42.8 °F 82% 29.84 in 7.0 mi Calm Calm - N/A   Unknown
9:15 PM 46.4 °F - 42.8 °F 87% 29.83 in 7.0 mi Calm Calm - N/A   Unknown
9:35 PM 46.4 °F - 42.8 °F 87% 29.84 in 7.0 mi Calm Calm - N/A   Unknown
9:55 PM 46.4 °F 45.2 °F 41.0 °F 81% 29.84 in 10.0 mi SW 3.5 mph - N/A   Unknown
10:15 PM 48.2 °F - 42.8 °F 82% 29.84 in 10.0 mi SW 5.8 mph - N/A   Unknown
10:35 PM 46.4 °F 45.2 °F 42.8 °F 87% 29.84 in 10.0 mi SW 3.5 mph - N/A   Unknown
10:55 PM 46.4 °F - 42.8 °F 87% 29.84 in 10.0 mi Calm Calm - N/A   Unknown
11:15 PM 48.2 °F - 42.8 °F 82% 29.84 in 10.0 mi WSW 5.8 mph - N/A   Unknown
11:35 PM 48.2 °F - 42.8 °F 82% 29.85 in 10.0 mi SW 4.6 mph - N/A   Unknown
11:55 PM 48.2 °F - 42.8 °F 82% 29.85 in 10.0 mi SW 4.6 mph - N/A   Unknown